Date String (YYYY-MM-DD hh:mm:ss) UTC,Instrument flags,absolute air pressure of the measurement (hPa),sample flow rate (lpm),inlet stack bypass flow (lpm),air temperature of the measurement (°C),ambient temperature measured by the external sensor (°C),aerosol sample conditioner tube jacket temperature (°C),OPC LED temperature (°C),internal box temperature (°C),relative humidity of the measurement (%),span deviation,mass concentration of particles derived from Lorenz-Mie calculation of OPC scattering (μg/m³),mass concentration of particles derived from Lorenz-Mie calculation of OPC scattering (μg/m³),mass concentration of particles derived from Lorenz-Mie calculation of OPC scattering (μg/m³)
DateTimeUTC,F1_M11,P_M11,Q1_M11,Q2_M11,T1_M11,T2_M11,T3_M11,T4_M11,T5_M11,U1_M11,ZSPAN_M11,X0_M11,X2_M11,X1_M11
2024-02-03 14:00:00,SystemResetWarning,0813.7,5.01,000.00,022.9,022.2,000.0,031.4,024.7,25.6,0000.0,0003.57,0003.29,0003.23
2024-02-03 14:01:00,SystemResetWarning,0813.7,5.00,000.00,022.9,022.2,000.0,031.4,024.7,25.6,0000.0,0003.55,0003.25,0003.18
2024-02-03 14:02:00,SystemResetWarning,0813.7,5.01,000.00,022.9,022.2,000.0,031.4,024.7,25.4,0000.0,0003.51,0003.22,0003.15
2024-02-03 14:03:00,SystemResetWarning,0813.7,5.00,000.00,022.9,022.2,000.0,031.4,024.7,25.2,0000.0,0003.42,0003.18,0003.12
2024-02-03 14:04:00,SystemResetWarning,0813.7,5.00,000.00,022.9,022.2,000.0,031.4,024.7,25.0,0000.0,0003.35,0003.13,0003.04
2024-02-03 14:05:00,SystemResetWarning,0813.8,5.00,000.00,022.9,022.2,000.0,031.4,024.7,24.9,0000.0,0003.20,0002.99,0002.87
2024-02-03 14:06:00,SystemResetWarning,0813.8,5.00,000.00,022.9,022.2,000.0,031.4,024.7,24.8,0000.0,0003.08,0002.84,0002.71
2024-02-03 14:07:00,SystemResetWarning,0813.8,5.00,000.00,022.9,022.2,000.0,031.4,024.7,24.7,0000.0,0002.94,0002.70,0002.57
2024-02-03 14:08:00,SystemResetWarning,0813.9,5.00,000.00,022.9,022.2,000.0,031.4,024.7,24.7,0000.0,0002.79,0002.57,0002.45
2024-02-03 14:09:00,SystemResetWarning,0813.9,5.00,000.00,022.9,022.2,000.0,031.4,024.7,24.6,0000.0,0002.64,0002.44,0002.33
2024-02-03 14:10:00,SystemResetWarning,0813.8,5.00,000.00,022.9,022.2,000.0,031.4,024.7,24.7,0000.0,0002.57,0002.35,0002.23
2024-02-03 14:11:00,SystemResetWarning,0813.8,5.00,000.00,022.9,022.1,000.0,031.3,024.7,24.7,0000.0,0002.48,0002.26,0002.14
2024-02-03 14:12:00,SystemResetWarning,0813.8,5.00,000.00,022.9,022.2,000.0,031.3,024.7,24.7,0000.0,0002.43,0002.18,0002.06
2024-02-03 14:13:00,SystemResetWarning,0813.7,5.01,000.00,022.9,022.2,000.0,031.3,024.7,24.7,0000.0,0002.34,0002.09,0001.97
2024-02-03 14:14:00,SystemResetWarning,0813.8,5.00,000.00,022.9,022.2,000.0,031.3,024.7,24.8,0000.0,0002.32,0002.03,0001.91
2024-02-03 14:15:00,SystemResetWarning,0813.7,5.00,000.00,022.9,022.2,000.0,031.3,024.7,25.0,0000.0,0002.37,0002.02,0001.87
2024-02-03 14:16:00,SystemResetWarning,0813.7,5.00,000.00,022.9,022.1,000.0,031.3,024.7,26.0,0000.0,0002.42,0002.08,0001.92
2024-02-03 14:17:00,SystemResetWarning,0813.7,5.00,000.00,022.9,022.1,000.0,031.3,024.7,25.5,0000.0,0002.47,0002.13,0001.98
2024-02-03 14:18:00,SystemResetWarning,0813.8,5.00,000.00,022.9,022.1,000.0,031.3,024.7,25.0,0000.0,0002.54,0002.17,0002.01
2024-02-03 14:19:00,SystemResetWarning,0813.7,4.99,000.00,022.9,022.1,000.0,031.3,024.7,24.8,0000.0,0002.65,0002.23,0002.05
2024-02-03 14:20:00,SystemResetWarning,0813.8,5.00,000.00,022.9,022.1,000.0,031.3,024.6,24.8,0000.0,0002.71,0002.28,0002.09
2024-02-03 14:21:00,SystemResetWarning,0813.8,5.00,000.00,022.9,022.1,000.0,031.3,024.6,24.8,0000.0,0002.67,0002.27,0002.08
2024-02-03 14:22:00,SystemResetWarning,0813.8,5.00,000.00,022.9,022.1,000.0,031.3,024.6,24.8,0000.0,0002.68,0002.28,0002.09
2024-02-03 14:23:00,SystemResetWarning,0813.8,5.00,000.00,022.8,022.1,000.0,031.3,024.6,24.8,0000.0,0002.61,0002.26,0002.10
2024-02-03 14:24:00,SystemResetWarning,0813.9,5.00,000.00,022.8,022.1,000.0,031.3,024.6,24.8,0000.0,0002.66,0002.30,0002.14
2024-02-03 14:25:00,SystemResetWarning,0813.9,5.00,000.00,022.8,022.1,000.0,031.3,024.6,24.7,0000.0,0002.67,0002.31,0002.15
2024-02-03 14:26:00,SystemResetWarning,0813.8,5.01,000.00,022.8,022.1,000.0,031.3,024.6,24.7,0000.0,0002.66,0002.32,0002.15
2024-02-03 14:27:00,SystemResetWarning,0813.8,5.00,000.00,022.8,022.1,000.0,031.3,024.6,24.6,0000.0,0002.69,0002.33,0002.15
2024-02-03 14:28:00,SystemResetWarning,0813.8,5.00,000.00,022.8,022.1,000.0,031.3,024.6,24.5,0000.0,0002.67,0002.29,0002.10
2024-02-03 14:29:00,SystemResetWarning,0813.8,5.00,000.00,022.8,022.1,000.0,031.3,024.6,24.5,0000.0,0002.66,0002.26,0002.06
2024-02-03 14:30:00,SystemResetWarning,0813.9,4.99,000.00,022.8,022.1,000.0,031.3,024.6,24.5,0000.0,0002.67,0002.22,0002.02
2024-02-03 14:31:00,SystemResetWarning,0813.9,5.00,000.00,022.8,022.1,000.0,031.3,024.6,24.5,0000.0,0002.59,0002.16,0001.97
2024-02-03 14:32:00,SystemResetWarning,0813.8,5.00,000.00,022.8,022.1,000.0,031.3,024.6,24.5,0000.0,0002.63,0002.16,0001.97
2024-02-03 14:33:00,SystemResetWarning,0813.8,5.01,000.00,022.8,022.1,000.0,031.3,024.6,24.4,0000.0,0002.70,0002.18,0001.96
2024-02-03 14:34:00,SystemResetWarning,0813.8,5.00,000.00,022.8,022.1,000.0,031.3,024.6,24.4,0000.0,0002.70,0002.17,0001.92
2024-02-03 14:35:00,SystemResetWarning,0813.8,4.99,000.00,022.8,022.1,000.0,031.3,024.6,24.3,0000.0,0002.68,0002.11,0001.85
2024-02-03 14:36:00,SystemResetWarning,0813.8,5.00,000.00,022.8,022.1,000.0,031.3,024.6,24.3,0000.0,0002.53,0002.00,0001.77
2024-02-03 14:37:00,SystemResetWarning,0813.8,5.00,000.00,022.8,022.1,000.0,031.3,024.6,24.3,0000.0,0002.37,0001.89,0001.69
2024-02-03 14:38:00,SystemResetWarning,0813.9,5.01,000.00,022.8,022.1,000.0,031.3,024.6,24.2,0000.0,0002.28,0001.80,0001.61
2024-02-03 14:39:00,SystemResetWarning,0813.9,5.01,000.00,022.8,022.1,000.0,031.3,024.6,24.2,0000.0,0002.19,0001.74,0001.56
2024-02-03 14:40:00,SystemResetWarning,0813.9,5.01,000.00,022.8,022.1,000.0,031.3,024.6,24.2,0000.0,0002.19,0001.73,0001.55
2024-02-03 14:41:00,SystemResetWarning,0814.0,5.00,000.00,022.8,022.1,000.0,031.3,024.6,24.2,0000.0,0002.06,0001.68,0001.51
2024-02-03 14:42:00,SystemResetWarning,0813.9,5.00,000.00,022.8,022.1,000.0,031.3,024.6,24.1,0000.0,0002.01,0001.65,0001.49
2024-02-03 14:43:00,SystemResetWarning,0813.9,5.00,000.00,022.8,022.1,000.0,031.2,024.6,24.2,0000.0,0001.95,0001.61,0001.46
2024-02-03 14:44:00,SystemResetWarning,0814.0,5.00,000.00,022.8,022.1,000.0,031.2,024.6,24.2,0000.0,0001.87,0001.56,0001.43
2024-02-03 14:45:00,SystemResetWarning,0813.9,5.00,000.00,022.8,022.1,000.0,031.2,024.6,24.1,0000.0,0001.87,0001.54,0001.41
2024-02-03 14:46:00,SystemResetWarning,0813.9,5.00,000.00,022.8,022.1,000.0,031.2,024.6,24.1,0000.0,0001.92,0001.56,0001.41
2024-02-03 14:47:00,SystemResetWarning,0813.9,5.00,000.00,022.8,022.1,000.0,031.2,024.6,24.1,0000.0,0001.98,0001.59,0001.41
2024-02-03 14:48:00,SystemResetWarning,0813.8,5.00,000.00,022.8,022.1,000.0,031.2,024.6,24.1,0000.0,0002.15,0001.66,0001.42
2024-02-03 14:49:00,SystemResetWarning,0813.8,4.99,000.00,022.8,022.1,000.0,031.2,024.6,24.0,0000.0,0002.23,0001.71,0001.43
2024-02-03 14:50:00,SystemResetWarning,0813.8,5.00,000.00,022.8,022.1,000.0,031.2,024.6,24.0,0000.0,0002.47,0001.78,0001.43
2024-02-03 14:51:00,SystemResetWarning,0813.8,5.00,000.00,022.8,022.1,000.0,031.2,024.6,24.0,0000.0,0002.62,0001.81,0001.42
2024-02-03 14:52:00,SystemResetWarning,0813.7,5.00,000.00,022.8,022.1,000.0,031.2,024.5,24.0,0000.0,0002.74,0001.83,0001.42
2024-02-03 14:53:00,SystemResetWarning,0813.7,5.00,000.00,022.8,022.0,000.0,031.2,024.5,24.0,0000.0,0002.90,0001.87,0001.42
2024-02-03 14:54:00,SystemResetWarning,0813.7,5.00,000.00,022.8,022.0,000.0,031.2,024.6,23.9,0000.0,0002.98,0001.90,0001.41
2024-02-03 14:55:00,SystemResetWarning,0813.8,5.00,000.00,022.8,022.0,000.0,031.2,024.6,23.9,0000.0,0002.96,0001.88,0001.40
2024-02-03 14:56:00,SystemResetWarning,0813.8,5.00,000.00,022.8,022.0,000.0,031.2,024.5,23.9,0000.0,0002.91,0001.85,0001.37
2024-02-03 14:57:00,SystemResetWarning,0813.9,5.00,000.00,022.8,022.0,000.0,031.2,024.5,23.9,0000.0,0002.84,0001.81,0001.35
2024-02-03 14:58:00,SystemResetWarning,0813.8,5.00,000.00,022.8,022.0,000.0,031.2,024.5,23.9,0000.0,0002.77,0001.76,0001.33
2024-02-03 14:59:00,SystemResetWarning,0813.8,5.00,000.00,022.7,022.0,000.0,031.2,024.5,23.9,0000.0,0002.81,0001.68,0001.30
